Regional Weather Roundup
Issued by NWS

Home | Current Version | Previous Version | Text Only | Print | Product List | Glossary Off
Versions: 1 2 3 4 5 6 7 8 9 10 11 12 13 14 15 16 17 18 19 20 21 22 23 24 25 26 27 28 29 30 31 32 33 34 35 36 37 38 39 40 41 42 43 44 45 46 47 48 49 50

000
ASUS43 KMKX 240320
RWRWI

WISCONSIN REGIONAL WEATHER ROUNDUP
NATIONAL WEATHER SERVICE MILWAUKEE/SULLIVAN WI
1000 PM CDT MON APR 23 2018

NOTE: "FAIR" INDICATES FEW OR NO CLOUDS BELOW 12,000 FEET WITH NO
SIGNIFICANT WEATHER AND/OR OBSTRUCTIONS TO VISIBILITY.

WIZ001-002-006>008-014>016-023>028-240400-
NORTHWEST WISCONSIN

CITY           SKY/WX    TMP DP  RH WIND       PRES   REMARKS
SUPERIOR ARPT  CLOUDY    47  37  69 SW5       30.10S
ASHLAND        FAIR      48  30  49 S8        30.11S
HAYWARD        FAIR      42  29  59 CALM      30.13S
SIREN          FAIR      46  34  63 CALM      30.13S
CUMBERLAND     FAIR      46  32  57 CALM      30.14S
RICE LAKE      FAIR      42  35  75 CALM      30.15S
CHETEK         FAIR      44  33  66 CALM      30.14R
LADYSMITH      FAIR      43  34  70 CALM      30.15S
EAU CLAIRE     FAIR      53  34  48 SE5       30.13R
MENOMONIE      FAIR      52  38  60 CALM      30.13S
NEW RICHMOND   FAIR      47  37  70 N5        30.14R
OSCEOLA        FAIR      47  38  71 CALM      30.16S
$$

WIZ003>005-009-010-017-018-240400-
NORTH CENTRAL WISCONSIN

CITY           SKY/WX    TMP DP  RH WIND       PRES   REMARKS
MANITOWISH WTR FAIR      38  27  64 CALM      30.13S
ARBOR VITAE    FAIR      42  27  55 CALM      30.13S
WOODRUFF       FAIR      42  27  55 CALM      30.13S
RHINELANDER    FAIR      40  28  62 CALM      30.14S
EAGLE RIVER    FAIR      37  25  61 CALM      30.13S
LAND O LAKES   FAIR      35  25  68 CALM      30.15S
PHILLIPS       FAIR      39  30  69 CALM      30.13S
TOMAHAWK       FAIR      37  27  66 CALM      30.15R
MEDFORD        FAIR      42  32  67 CALM      30.13S
MERRILL        FAIR      41  28  60 CALM      30.14S
$$

WIZ029-030-035-036-043>047-240400-
CENTRAL WISCONSIN

CITY           SKY/WX    TMP DP  RH WIND       PRES   REMARKS
WAUSAU         FAIR      50  28  42 S3        30.12S
MOSINEE        CLEAR     50  21  32 SE3       30.15R
MARSHFIELD     FAIR      49  31  49 CALM      30.12S
STEVENS POINT  FAIR      38  24  55 CALM      30.15S
WAUPACA        FAIR      45  28  50 CALM      30.15S
WAUTOMA        FAIR      42  30  62 CALM      30.15S
WISC RAPIDS    FAIR      42  27  55 SE3       30.15R
CAMP DOUGLAS   NOT AVBL
$$

WIZ011>013-019>022-031-037>040-048>050-240400-
NORTHEAST WISCONSIN

CITY           SKY/WX    TMP DP  RH WIND       PRES   REMARKS
ANTIGO         FAIR      41  32  69 CALM      30.15R
SHAWANO        FAIR      44  31  61 CALM      30.14S
OCONTO         FAIR      38  27  64 CALM      30.14S
STURGEON BAY   FAIR      48  26  42 E6        30.15S
GREEN BAY      FAIR      48  34  58 CALM      30.15R
MANITOWOC      FAIR      47  29  49 N3        30.15S
APPLETON       CLEAR     52  27  37 VRB5      30.13R
CLINTONVILLE   FAIR      43  28  55 CALM      30.14S
OSHKOSH        FAIR      49  32  52 CALM      30.14R
$$

WIZ032>034-041-042-053>061-240400-
SOUTHWEST WISCONSIN

CITY           SKY/WX    TMP DP  RH WIND       PRES   REMARKS
LA CROSSE      FAIR      54  32  43 CALM      30.11R
SPARTA         FAIR      44  29  57 CALM      30.14R
VIROQUA        FAIR      52  29  41 E8        30.13R
BOSCOBEL       FAIR      47  32  56 CALM      30.13R HAZE
PRAIRIE DU CHI FAIR      51  32  48 CALM      30.11R
PLATTEVILLE    FAIR      54  34  46 NE9       30.12S
$$

WIZ056-057-062-063-064-067-068-240400-
SOUTH CENTRAL WISCONSIN

CITY           SKY/WX    TMP DP  RH WIND       PRES   REMARKS
REEDSBURG      FAIR      50  31  48 CALM      30.13S
BARABOO/DELLS  FAIR      50  29  43 CALM      30.13S
LONE ROCK      FAIR      54  32  43 E5        30.12S
MINERAL POINT  FAIR      54  30  40 NE7       30.12S
MADISON        FAIR      50  34  54 CALM      30.12S
MIDDLETON      FAIR      46  36  66 CALM      30.13S
WATERTOWN      FAIR      49  29  46 CALM      30.12R
MONROE         FAIR      54  28  37 NE7       30.11R
JANESVILLE     FAIR      54  28  37 CALM      30.11S
$$

WIZ051-052-058>065-066-070>072-240400-
SOUTHEAST WISCONSIN

CITY           SKY/WX    TMP DP  RH WIND       PRES   REMARKS
MILWAUKEE      MOCLDY    52  25  35 N15       30.13R
WAUKESHA       FAIR      48  23  37 NE5       30.14S
MILWAUKEE/TIMM FAIR      50  19  29 N5        30.13S
RACINE         FAIR      49  26  41 N15G24    30.13S
BURLINGTON     FAIR      51  25  36 E3        30.12S
KENOSHA        FAIR      51  26  37 NE6       30.11F
FOND DU LAC    FAIR      45  35  68 CALM      30.13S
SHEBOYGAN      FAIR      43  31  62 NE5       30.14R
WEST BEND      FAIR      48  25  40 CALM      30.13F
JUNEAU         FAIR      49  36  61 NE5       30.14S
$$

LSZ147-162-240400-
LAKE SUPERIOR

STATION/POSITION TIME  TEMP    WIND        PRES    WAVE
                       AIR SEA DIR/SP/G            HT/PER
                 (UTC) (F)     (DEG/KT/KT) (MB)    (FT/S)
DEVILS ISLAND    0300          350/  5/  6 1019.8R
SAXON HARBOR     0240   41     190/  3/  4 1019.0R
$$

LMZ867-665-643>646-240400-
LAKE MICHIGAN

STATION/POSITION TIME  TEMP    WIND        PRES    WAVE
                       AIR SEA DIR/SP/G            HT/PER
                 (UTC) (F)     (DEG/KT/KT) (MB)    (FT/S)
NORTHPORT PIER   0240   44                 1021.0R
KEWAUNEE LAKESHO 0254   44      30/  3/  5 1020.1S
SHEBOYGAN LAKESH 0300   46     350/ 14/ 16 1020.6S
PORT WASHINGTON  0230   53     360/  5/  9 1021.0S
MILWAUKEE LAKESH 0300   51      10/ 13/ 17   N/A
KENOSHA   LAKESH 0300   47                 1019.6
$$

TC  - TEMPERATURE IN CELSIUS
VSB - VISIBILITY IN STATUTE MILES
WCI - WIND CHILL INDEX
HX  - HEAT INDEX





USA.gov is the U.S. government's official web portal to all federal, state and local government web resources and services.